This demonstration page uses our WeatherBlox Daily Observations layout. Learn more.

36.17497, -115.13722

Hourly Observations for July 2, 2015

Temp ( °F °C ) Dew Point ( °F °C ) Humidity (%) Winds ( mph kmh ) Pressure ( in mb ) Visibility ( mi km ) Precip ( " mm )
12:53 am 00:53 Clear 90 32 55 13 31 31 ENE 15 24 29.74 1007 10 16.09344 0 0
1:53 am 01:53 Partly Cloudy 90 32 57 14 33 33 ESE 13 20 29.8 1009 10 16.09344 0 0
2:53 am 02:53 Mostly Cloudy with Light Rain 88 31 57 14 35 35 E 10 17 29.8 1009 10 16.09344 0.001 0.001
3:53 am 03:53 Mostly Clear 82 28 64 18 55 55 NNE 7 11 29.77 1008 10 16.09344 0.001 0.001
4:53 am 04:53 Mostly Clear 82 28 64 18 55 55 SE 6 9 29.8 1009 10 16.09344 0 0
5:53 am 05:53 Sunny 82 28 64 18 55 55 S 5 7 29.85 1011 10 16.09344 0 0
6:53 am 06:53 Mostly Cloudy with Light Rain 81 27 66 19 62 62 WNW 10 17 29.85 1011 7 11.265408 0.001 0.001
7:53 am 07:53 Sunny 84 29 66 19 55 55 Calm 29.83 1010 10 16.09344 0.001 0.001
8:53 am 08:53 Sunny 86 30 64 18 49 49 S 5 7 29.83 1010 10 16.09344 0 0
9:53 am 09:53 Sunny 88 31 63 17 43 43 S 5 7 29.83 1010 10 16.09344 0 0
10:53 am 10:53 Sunny 91 33 61 16 36 36 Calm 29.8 1009 10 16.09344 0 0
11:53 am 11:53 Sunny 95 35 61 16 32 32 N 3 6 29.77 1008 10 16.09344 0 0
12:53 pm 12:53 Sunny 97 36 61 16 30 30 Calm 29.77 1008 10 16.09344 0 0
1:53 pm 13:53 Sunny 99 37 59 15 27 27 undefined N/A 29.71 1006 10 16.09344 0 0
2:53 pm 14:53 Sunny 100 38 57 14 24 24 SSE 9 15 29.68 1005 10 16.09344 0 0
3:53 pm 15:53 Sunny 100 38 55 13 22 22 Calm 29.62 1003 10 16.09344 0 0
4:53 pm 16:53 Sunny 102 39 55 13 21 21 SW 9 15 29.56 1001 10 16.09344 0 0
5:53 pm 17:53 Sunny 102 39 54 12 20 20 N 3 6 29.53 1000 10 16.09344 0 0
6:53 pm 18:53 Sunny 102 39 54 12 20 20 S 7 11 29.53 1000 10 16.09344 0 0
7:53 pm 19:53 Sunny 100 38 54 12 21 21 ESE 5 7 29.59 1002 10 16.09344 0 0
8:53 pm 20:53 Clear 100 38 54 12 21 21 SSE 10 17 29.59 1002 10 16.09344 0 0
9:53 pm 21:53 Clear 97 36 54 12 23 23 SSE 7 11 29.62 1003 10 16.09344 0 0
10:53 pm 22:53 Clear 97 36 55 13 25 25 W 5 7 29.62 1003 10 16.09344 0 0
11:53 pm 23:53 Clear 93 34 55 13 28 28 NW 6 9 29.65 1004 10 16.09344 0 0

Powered by AerisWeather